"read_dt","SO2 (ppb)","flags","PMT voltage (V)","lamp voltage (V)","lamp intensity (Hz)","internal temp (C)","react chamber temp (C)","sample flow (l/min)","pres (mmHg)","SO2 bkg (ppb)","SO2 coefficient"
2015-04-08 00:00:00,2604E-3,5C000000,-0724,0836,12177,030.7,045.5,0.475,749.1,01.17,0.508
2015-04-08 00:01:00,2596E-3,5C000000,-0724,0836,12273,030.6,045.5,0.475,749.1,01.17,0.508
2015-04-08 00:02:00,2658E-3,5C000000,-0724,0835,12111,030.5,045.5,0.475,749.2,01.17,0.508
2015-04-08 00:03:00,2555E-3,5C000000,-0724,0836,12122,030.4,045.5,0.475,749.2,01.17,0.508
2015-04-08 00:04:00,2432E-3,5C000000,-0724,0836,12152,030.2,045.5,0.475,749.2,01.17,0.508
2015-04-08 00:05:00,2485E-3,5C000000,-0724,0834,12166,030.1,045.5,0.476,749.2,01.17,0.508
2015-04-08 00:06:00,2355E-3,5C000000,-0724,0836,12206,029.9,045.5,0.475,749.2,01.17,0.508
2015-04-08 00:07:00,2231E-3,5C000000,-0724,0834,12201,029.8,045.5,0.476,749.2,01.17,0.508
2015-04-08 00:08:00,2089E-3,5C000000,-0724,0836,11974,029.6,045.5,0.476,749.2,01.17,0.508
2015-04-08 00:09:00,2162E-3,5C000000,-0724,0835,12238,029.4,045.5,0.477,749.2,01.17,0.508
2015-04-08 00:10:00,2066E-3,5C000000,-0724,0834,12210,029.1,045.5,0.477,749.3,01.17,0.508
2015-04-08 00:11:00,2210E-3,5C000000,-0724,0834,12101,028.9,045.5,0.477,749.3,01.17,0.508
2015-04-08 00:12:00,2272E-3,5C000000,-0724,0835,12113,028.7,045.5,0.478,749.3,01.17,0.508
2015-04-08 00:13:00,2380E-3,5C000000,-0724,0835,12297,028.5,045.5,0.478,749.3,01.17,0.508
2015-04-08 00:14:00,2325E-3,5C000000,-0724,0835,12213,028.4,045.5,0.478,749.3,01.17,0.508
2015-04-08 00:15:00,2372E-3,5C000000,-0724,0834,12357,028.3,045.5,0.478,749.3,01.17,0.508
2015-04-08 00:16:00,2269E-3,5C000000,-0724,0834,12061,028.2,045.5,0.478,749.3,01.17,0.508
2015-04-08 00:17:00,2382E-3,5C000000,-0724,0835,12244,028.2,045.5,0.478,749.3,01.17,0.508
2015-04-08 00:18:00,2290E-3,5C000000,-0724,0835,11995,028.2,045.5,0.479,749.3,01.17,0.508
2015-04-08 00:19:00,2163E-3,5C000000,-0724,0836,12178,028.2,045.5,0.478,749.3,01.17,0.508
2015-04-08 00:20:00,1948E-3,5C000000,-0724,0835,12073,028.3,045.5,0.478,749.3,01.17,0.508
2015-04-08 00:21:00,1820E-3,5C000000,-0724,0835,12236,028.3,045.5,0.479,749.3,01.17,0.508
2015-04-08 00:22:00,1775E-3,5C000000,-0724,0836,12170,028.4,045.5,0.478,749.3,01.17,0.508
2015-04-08 00:23:00,1907E-3,5C000000,-0724,0835,12323,028.5,045.5,0.479,749.2,01.17,0.508
2015-04-08 00:24:00,1885E-3,5C000000,-0724,0835,12072,028.6,045.5,0.478,749.3,01.17,0.508
2015-04-08 00:25:00,1772E-3,5C000000,-0724,0835,12044,028.7,045.5,0.478,749.3,01.17,0.508
2015-04-08 00:26:00,1841E-3,5C000000,-0724,0835,12111,028.9,045.5,0.478,749.2,01.17,0.508
2015-04-08 00:27:00,1842E-3,5C000000,-0724,0835,12025,029.0,045.5,0.478,749.3,01.17,0.508
2015-04-08 00:28:00,1970E-3,5C000000,-0724,0835,12172,029.1,045.5,0.477,749.3,01.17,0.508
2015-04-08 00:29:00,1968E-3,5C000000,-0724,0835,12007,029.1,045.5,0.477,749.3,01.17,0.508
2015-04-08 00:30:00,2169E-3,5C000000,-0724,0836,12205,029.2,045.5,0.477,749.3,01.17,0.508
2015-04-08 00:31:00,2193E-3,5C000000,-0724,0836,12138,029.3,045.5,0.478,749.3,01.17,0.508
2015-04-08 00:32:00,1874E-3,5C000000,-0724,0836,12031,029.4,045.5,0.478,749.3,01.17,0.508
2015-04-08 00:33:00,1842E-3,5C000000,-0724,0835,12194,029.5,045.5,0.477,749.3,01.17,0.508
2015-04-08 00:34:00,1826E-3,5C000000,-0724,0836,12099,029.6,045.5,0.477,749.3,01.17,0.508
2015-04-08 00:35:00,1788E-3,5C000000,-0724,0835,12233,029.6,045.5,0.477,749.3,01.17,0.508
2015-04-08 00:36:00,1861E-3,5C000000,-0724,0835,11976,029.7,045.5,0.477,749.3,01.17,0.508
2015-04-08 00:37:00,1825E-3,5C000000,-0724,0835,12207,029.8,045.5,0.476,749.3,01.17,0.508
2015-04-08 00:38:00,1958E-3,5C000000,-0724,0835,12280,029.9,045.5,0.476,749.3,01.17,0.508
2015-04-08 00:39:00,1784E-3,5C000000,-0724,0835,12154,029.9,045.5,0.476,749.3,01.17,0.508
2015-04-08 00:40:00,1905E-3,5C000000,-0724,0835,12079,030.0,045.5,0.476,749.3,01.17,0.508
2015-04-08 00:41:00,1931E-3,5C000000,-0724,0835,12172,030.0,045.5,0.476,749.3,01.17,0.508
2015-04-08 00:42:00,1810E-3,5C000000,-0724,0834,12141,030.1,045.5,0.476,749.3,01.17,0.508
2015-04-08 00:43:00,1866E-3,5C000000,-0724,0836,12102,030.2,045.5,0.476,749.3,01.17,0.508
2015-04-08 00:44:00,1818E-3,5C000000,-0724,0836,11938,030.2,045.5,0.476,749.3,01.17,0.508
2015-04-08 00:45:00,1781E-3,5C000000,-0724,0836,12197,030.3,045.5,0.476,749.3,01.17,0.508
2015-04-08 00:46:00,1818E-3,5C000000,-0724,0836,12111,030.3,045.5,0.475,749.3,01.17,0.508
2015-04-08 00:47:00,1917E-3,5C000000,-0724,0835,12216,030.4,045.5,0.475,749.3,01.17,0.508
2015-04-08 00:48:00,1955E-3,5C000000,-0724,0836,12105,030.5,045.5,0.476,749.3,01.17,0.508
2015-04-08 00:49:00,1834E-3,5C000000,-0724,0836,12147,030.5,045.5,0.476,749.4,01.17,0.508
2015-04-08 00:50:00,1797E-3,5C000000,-0724,0836,12209,030.5,045.5,0.475,749.3,01.17,0.508
2015-04-08 00:51:00,1887E-3,5C000000,-0724,0836,12087,030.4,045.5,0.475,749.4,01.17,0.508
2015-04-08 00:52:00,1777E-3,5C000000,-0724,0836,12082,030.3,045.5,0.476,749.4,01.17,0.508
2015-04-08 00:53:00,1811E-3,5C000000,-0724,0836,12120,030.3,045.5,0.476,749.3,01.17,0.508
2015-04-08 00:54:00,1764E-3,5C000000,-0724,0836,12149,030.1,045.5,0.475,749.3,01.17,0.508
2015-04-08 00:55:00,1805E-3,5C000000,-0724,0835,12113,030.0,045.5,0.476,749.4,01.17,0.508
2015-04-08 00:56:00,1899E-3,5C000000,-0724,0836,12272,029.8,045.5,0.476,749.3,01.17,0.508
2015-04-08 00:57:00,1827E-3,5C000000,-0724,0835,12179,029.7,045.5,0.476,749.3,01.17,0.508
2015-04-08 00:58:00,1891E-3,5C000000,-0724,0835,12121,029.5,045.5,0.476,749.3,01.17,0.508
2015-04-08 00:59:00,1907E-3,5C000000,-0724,0836,12113,029.3,045.5,0.477,749.3,01.17,0.508
2015-04-08 01:00:00,1845E-3,5C000000,-0724,0835,12139,029.0,045.5,0.477,749.3,01.17,0.508
2015-04-08 01:01:00,1721E-3,5C000000,-0724,0835,12017,028.8,045.5,0.477,749.3,01.17,0.508
2015-04-08 01:02:00,1878E-3,5C000000,-0724,0834,12038,028.6,045.5,0.477,749.3,01.17,0.508
2015-04-08 01:03:00,1777E-3,5C000000,-0724,0835,12238,028.3,045.5,0.478,749.3,01.17,0.508
2015-04-08 01:04:00,1794E-3,5C000000,-0724,0835,12133,028.1,045.4,0.478,749.3,01.17,0.508
2015-04-08 01:05:00,1805E-3,5C000000,-0724,0835,12243,028.0,045.4,0.478,749.4,01.17,0.508
2015-04-08 01:06:00,1758E-3,5C000000,-0724,0833,12258,027.8,045.5,0.478,749.3,01.17,0.508
2015-04-08 01:07:00,1758E-3,5C000000,-0724,0834,12160,027.7,045.5,0.479,749.4,01.17,0.508
2015-04-08 01:08:00,1756E-3,5C000000,-0724,0834,12207,027.7,045.5,0.479,749.4,01.17,0.508
2015-04-08 01:09:00,1731E-3,5C000000,-0724,0835,12146,027.8,045.5,0.479,749.4,01.17,0.508
2015-04-08 01:10:00,1780E-3,5C000000,-0724,0834,12150,027.9,045.5,0.479,749.4,01.17,0.508
2015-04-08 01:11:00,1708E-3,5C000000,-0724,0835,12410,028.0,045.5,0.479,749.4,01.17,0.508
2015-04-08 01:12:00,1800E-3,5C000000,-0724,0835,12048,028.0,045.5,0.479,749.4,01.17,0.508
2015-04-08 01:13:00,1773E-3,5C000000,-0724,0835,12245,028.2,045.5,0.479,749.4,01.17,0.508
2015-04-08 01:14:00,1782E-3,5C000000,-0724,0835,12056,028.3,045.5,0.479,749.3,01.17,0.508
2015-04-08 01:15:00,1702E-3,5C000000,-0724,0835,12179,028.4,045.5,0.479,749.4,01.17,0.508
2015-04-08 01:16:00,1787E-3,5C000000,-0724,0836,12222,028.5,045.5,0.478,749.5,01.17,0.508
2015-04-08 01:17:00,1786E-3,5C000000,-0724,0835,12179,028.7,045.5,0.478,749.5,01.17,0.508
2015-04-08 01:18:00,1617E-3,5C000000,-0724,0835,12153,028.8,045.5,0.478,749.4,01.17,0.508
2015-04-08 01:19:00,1777E-3,5C000000,-0724,0835,12183,028.9,045.5,0.478,749.4,01.17,0.508
2015-04-08 01:20:00,1692E-3,5C000000,-0724,0835,12150,029.0,045.5,0.478,749.4,01.17,0.508
2015-04-08 01:21:00,1711E-3,5C000000,-0724,0835,12232,029.1,045.5,0.478,749.4,01.17,0.508
2015-04-08 01:22:00,1869E-3,5C000000,-0724,0836,12109,029.2,045.5,0.478,749.4,01.17,0.508
2015-04-08 01:23:00,1638E-3,5C000000,-0724,0836,12168,029.3,045.5,0.477,749.4,01.17,0.508
2015-04-08 01:24:00,1886E-3,5C000000,-0724,0834,12090,029.3,045.5,0.477,749.4,01.17,0.508
2015-04-08 01:25:00,1750E-3,5C000000,-0724,0836,12208,029.5,045.5,0.477,749.4,01.17,0.508
2015-04-08 01:26:00,1839E-3,5C000000,-0724,0836,12263,029.5,045.5,0.477,749.4,01.17,0.508
2015-04-08 01:27:00,1748E-3,5C000000,-0724,0836,12146,029.6,045.5,0.477,749.4,01.17,0.508
2015-04-08 01:28:00,1740E-3,5C000000,-0724,0835,12095,029.7,045.5,0.477,749.4,01.17,0.508
2015-04-08 01:29:00,1659E-3,5C000000,-0724,0836,12149,029.7,045.5,0.477,749.4,01.17,0.508
2015-04-08 01:30:00,1744E-3,5C000000,-0724,0835,11927,029.8,045.5,0.477,749.4,01.17,0.508
2015-04-08 01:31:00,1706E-3,5C000000,-0724,0836,12359,029.9,045.5,0.477,749.3,01.17,0.508
2015-04-08 01:32:00,1928E-3,5C000000,-0724,0835,12324,030.0,045.5,0.476,749.4,01.17,0.508
2015-04-08 01:33:00,1817E-3,5C000000,-0724,0836,12127,030.1,045.5,0.476,749.4,01.17,0.508
2015-04-08 01:34:00,1778E-3,5C000000,-0724,0836,12194,030.1,045.5,0.476,749.3,01.17,0.508
2015-04-08 01:35:00,1828E-3,5C000000,-0724,0835,12191,030.2,045.5,0.476,749.3,01.17,0.508
2015-04-08 01:36:00,1870E-3,5C000000,-0724,0835,12072,030.2,045.5,0.475,749.3,01.17,0.508
2015-04-08 01:37:00,1688E-3,5C000000,-0724,0836,12161,030.3,045.5,0.476,749.3,01.17,0.508
2015-04-08 01:38:00,1714E-3,5C000000,-0724,0836,12173,030.4,045.5,0.476,749.4,01.17,0.508
2015-04-08 01:39:00,1695E-3,5C000000,-0724,0835,12104,030.4,045.5,0.476,749.3,01.17,0.508
2015-04-08 01:40:00,1785E-3,5C000000,-0724,0836,12046,030.4,045.5,0.475,749.3,01.17,0.508
2015-04-08 01:41:00,1723E-3,5C000000,-0724,0835,12215,030.5,045.5,0.475,749.3,01.17,0.508
2015-04-08 01:42:00,1723E-3,5C000000,-0724,0835,12118,030.5,045.5,0.476,749.4,01.17,0.508
2015-04-08 01:43:00,1794E-3,5C000000,-0724,0835,12228,030.4,045.5,0.475,749.4,01.17,0.508
2015-04-08 01:44:00,1780E-3,5C000000,-0724,0835,12090,030.3,045.5,0.475,749.4,01.17,0.508
2015-04-08 01:45:00,1849E-3,5C000000,-0724,0835,12134,030.2,045.5,0.475,749.4,01.17,0.508
2015-04-08 01:46:00,1699E-3,5C000000,-0724,0837,11988,030.1,045.5,0.476,749.5,01.17,0.508
2015-04-08 01:47:00,1921E-3,5C000000,-0724,0835,12003,030.0,045.5,0.476,749.5,01.17,0.508
2015-04-08 01:48:00,1744E-3,5C000000,-0724,0835,11864,029.9,045.5,0.476,749.4,01.17,0.508
2015-04-08 01:49:00,1769E-3,5C000000,-0724,0836,12023,029.7,045.5,0.476,749.5,01.17,0.508
2015-04-08 01:50:00,1732E-3,5C000000,-0724,0836,12242,029.5,045.5,0.476,749.5,01.17,0.508
2015-04-08 01:51:00,1784E-3,5C000000,-0724,0835,12190,029.4,045.5,0.477,749.5,01.17,0.508
2015-04-08 01:52:00,1732E-3,5C000000,-0724,0835,12132,029.1,045.5,0.477,749.5,01.17,0.508
2015-04-08 01:53:00,1683E-3,5C000000,-0724,0836,12138,028.9,045.5,0.477,749.6,01.17,0.508
2015-04-08 01:54:00,1791E-3,5C000000,-0724,0835,12092,028.6,045.5,0.477,749.6,01.17,0.508
2015-04-08 01:55:00,1916E-3,5C000000,-0724,0835,12125,028.4,045.5,0.478,749.6,01.17,0.508
2015-04-08 01:56:00,1685E-3,5C000000,-0724,0835,12199,028.2,045.5,0.478,749.6,01.17,0.508
2015-04-08 01:57:00,1704E-3,5C000000,-0724,0835,12109,028.0,045.4,0.479,749.6,01.17,0.508
2015-04-08 01:58:00,1787E-3,5C000000,-0724,0834,12017,027.9,045.4,0.479,749.6,01.17,0.508
2015-04-08 01:59:00,1794E-3,5C000000,-0724,0835,12078,027.7,045.5,0.478,749.7,01.17,0.508
2015-04-08 02:00:00,1785E-3,5C000000,-0724,0837,12320,027.7,045.5,0.479,749.7,01.17,0.508
2015-04-08 02:01:00,1801E-3,5C000000,-0724,0835,12124,027.7,045.5,0.479,749.6,01.17,0.508
2015-04-08 02:02:00,1932E-3,5C000000,-0724,0835,12093,027.8,045.5,0.479,749.6,01.17,0.508
2015-04-08 02:03:00,2057E-3,5C000000,-0724,0836,12233,027.9,045.4,0.479,749.6,01.17,0.508
2015-04-08 02:04:00,1998E-3,5C000000,-0724,0834,12162,028.0,045.5,0.479,749.6,01.17,0.508
2015-04-08 02:05:00,2101E-3,5C000000,-0724,0835,12179,028.1,045.5,0.479,749.6,01.17,0.508
2015-04-08 02:06:00,2358E-3,5C000000,-0724,0834,12097,028.2,045.4,0.479,749.6,01.17,0.508
2015-04-08 02:07:00,2494E-3,5C000000,-0724,0835,12223,028.3,045.5,0.479,749.6,01.17,0.508
2015-04-08 02:08:00,2665E-3,5C000000,-0724,0834,12116,028.5,045.5,0.479,749.6,01.17,0.508
2015-04-08 02:09:00,2220E-3,5C000000,-0724,0836,12076,028.6,045.5,0.479,749.6,01.17,0.508
2015-04-08 02:10:00,2504E-3,5C000000,-0724,0835,12026,028.7,045.5,0.479,749.6,01.17,0.508
2015-04-08 02:11:00,2561E-3,5C000000,-0724,0835,12133,028.8,045.5,0.478,749.6,01.17,0.508
2015-04-08 02:12:00,2841E-3,5C000000,-0724,0835,11991,028.9,045.5,0.478,749.6,01.17,0.508
2015-04-08 02:13:00,3126E-3,5C000000,-0724,0836,12116,029.0,045.5,0.478,749.6,01.17,0.508
2015-04-08 02:14:00,3238E-3,5C000000,-0724,0836,12207,029.1,045.5,0.477,749.7,01.17,0.508
2015-04-08 02:15:00,2801E-3,5C000000,-0724,0835,12172,029.2,045.5,0.477,749.6,01.17,0.508
2015-04-08 02:16:00,2303E-3,5C000000,-0724,0835,12305,029.3,045.5,0.477,749.6,01.17,0.508
2015-04-08 02:17:00,1972E-3,5C000000,-0724,0834,12092,029.4,045.5,0.477,749.6,01.17,0.508
2015-04-08 02:18:00,2034E-3,5C000000,-0724,0835,12035,029.5,045.5,0.477,749.6,01.17,0.508
2015-04-08 02:19:00,1963E-3,5C000000,-0724,0836,12072,029.6,045.5,0.477,749.6,01.17,0.508
2015-04-08 02:20:00,1786E-3,5C000000,-0724,0835,12296,029.7,045.5,0.477,749.6,01.17,0.508
2015-04-08 02:21:00,1827E-3,5C000000,-0724,0835,12396,029.8,045.5,0.477,749.7,01.17,0.508
2015-04-08 02:22:00,1828E-3,5C000000,-0724,0835,12228,029.8,045.5,0.477,749.7,01.17,0.508
2015-04-08 02:23:00,1871E-3,5C000000,-0724,0836,12171,029.9,045.5,0.477,749.7,01.17,0.508
2015-04-08 02:24:00,1839E-3,5C000000,-0724,0835,12133,030.0,045.5,0.477,749.7,01.17,0.508
2015-04-08 02:25:00,2047E-3,5C000000,-0724,0836,12201,030.0,045.5,0.476,749.7,01.17,0.508
2015-04-08 02:26:00,2106E-3,5C000000,-0724,0835,12049,030.1,045.5,0.476,749.7,01.17,0.508
2015-04-08 02:27:00,1846E-3,5C000000,-0724,0837,12046,030.2,045.5,0.476,749.7,01.17,0.508
2015-04-08 02:28:00,2179E-3,5C000000,-0724,0836,12199,030.3,045.5,0.475,749.7,01.17,0.508
2015-04-08 02:29:00,2298E-3,5C000000,-0724,0837,12177,030.3,045.5,0.476,749.7,01.17,0.508
2015-04-08 02:30:00,2599E-3,5C000000,-0724,0836,12200,030.3,045.5,0.476,749.7,01.17,0.508
2015-04-08 02:31:00,2773E-3,5C000000,-0724,0836,12140,030.3,045.5,0.476,749.8,01.17,0.508
2015-04-08 02:32:00,2692E-3,5C000000,-0724,0835,12143,030.3,045.5,0.475,749.8,01.17,0.508
2015-04-08 02:33:00,2513E-3,5C000000,-0724,0836,12141,030.2,045.5,0.476,749.7,01.17,0.508
2015-04-08 02:34:00,2355E-3,5C000000,-0724,0836,12130,030.1,045.5,0.475,749.8,01.17,0.508
2015-04-08 02:35:00,2112E-3,5C000000,-0724,0835,12113,030.0,045.5,0.476,749.8,01.17,0.508
2015-04-08 02:36:00,1795E-3,5C000000,-0724,0836,12178,029.9,045.5,0.476,749.7,01.17,0.508
2015-04-08 02:37:00,2001E-3,5C000000,-0724,0836,12217,029.7,045.5,0.476,749.8,01.17,0.508
2015-04-08 02:38:00,2034E-3,5C000000,-0724,0836,12241,029.6,045.5,0.476,749.8,01.17,0.508
2015-04-08 02:39:00,2231E-3,5C000000,-0724,0835,12157,029.4,045.5,0.477,749.8,01.17,0.508
2015-04-08 02:40:00,2087E-3,5C000000,-0724,0836,12221,029.3,045.5,0.477,749.8,01.17,0.508
2015-04-08 02:41:00,2094E-3,5C000000,-0724,0836,12027,029.0,045.5,0.477,749.8,01.17,0.508
2015-04-08 02:42:00,2093E-3,5C000000,-0724,0834,12034,028.8,045.5,0.477,749.8,01.17,0.508
2015-04-08 02:43:00,1988E-3,5C000000,-0724,0835,12216,028.5,045.4,0.477,749.8,01.17,0.508
2015-04-08 02:44:00,1951E-3,5C000000,-0724,0835,12134,028.3,045.4,0.478,749.9,01.17,0.508
2015-04-08 02:45:00,1838E-3,5C000000,-0724,0835,12126,028.1,045.4,0.478,749.8,01.17,0.508
2015-04-08 02:46:00,1965E-3,5C000000,-0724,0835,12067,027.9,045.4,0.478,749.9,01.17,0.508
2015-04-08 02:47:00,2000E-3,5C000000,-0724,0835,12130,027.8,045.4,0.478,749.9,01.17,0.508
2015-04-08 02:48:00,1961E-3,5C000000,-0724,0835,12306,027.7,045.4,0.479,749.8,01.17,0.508
2015-04-08 02:49:00,2097E-3,5C000000,-0724,0835,12091,027.7,045.5,0.479,749.9,01.17,0.508
2015-04-08 02:50:00,2061E-3,5C000000,-0724,0836,12064,027.7,045.5,0.479,749.8,01.17,0.508
2015-04-08 02:51:00,2132E-3,5C000000,-0724,0835,12176,027.7,045.5,0.479,749.8,01.17,0.508
2015-04-08 02:52:00,2198E-3,5C000000,-0724,0836,12067,027.8,045.5,0.479,749.8,01.17,0.508
2015-04-08 02:53:00,2141E-3,5C000000,-0724,0836,12231,027.9,045.5,0.479,749.8,01.17,0.508
2015-04-08 02:54:00,1874E-3,5C000000,-0724,0837,12178,028.0,045.5,0.479,749.8,01.17,0.508
2015-04-08 02:55:00,1911E-3,5C000000,-0724,0836,11946,028.2,045.5,0.479,749.8,01.17,0.508
2015-04-08 02:56:00,1813E-3,5C000000,-0724,0835,12175,028.3,045.5,0.479,749.8,01.17,0.508
2015-04-08 02:57:00,1944E-3,5C000000,-0724,0835,12109,028.4,045.5,0.479,749.8,01.17,0.508
2015-04-08 02:58:00,1946E-3,5C000000,-0724,0836,12241,028.5,045.5,0.478,749.8,01.17,0.508
2015-04-08 02:59:00,1857E-3,5C000000,-0724,0835,12208,028.7,045.5,0.478,749.8,01.17,0.508
2015-04-08 03:00:00,1844E-3,5C000000,-0724,0836,12176,028.8,045.5,0.478,749.8,01.17,0.508
2015-04-08 03:01:00,1948E-3,5C000000,-0724,0835,11986,028.9,045.5,0.478,749.8,01.17,0.508
2015-04-08 03:02:00,1833E-3,5C000000,-0724,0836,12124,029.0,045.5,0.478,749.8,01.17,0.508
2015-04-08 03:03:00,1964E-3,5C000000,-0724,0836,12111,029.1,045.5,0.478,749.8,01.17,0.508
2015-04-08 03:04:00,1804E-3,5C000000,-0724,0835,12150,029.2,045.5,0.478,749.8,01.17,0.508
2015-04-08 03:05:00,1833E-3,5C000000,-0724,0835,12089,029.3,045.5,0.478,749.7,01.17,0.508
2015-04-08 03:06:00,1750E-3,5C000000,-0724,0836,12182,029.4,045.5,0.477,749.8,01.17,0.508
2015-04-08 03:07:00,1881E-3,5C000000,-0724,0836,12016,029.5,045.5,0.477,749.8,01.17,0.508
2015-04-08 03:08:00,1864E-3,5C000000,-0724,0837,12281,029.6,045.5,0.477,749.7,01.17,0.508
2015-04-08 03:09:00,1739E-3,5C000000,-0724,0835,12255,029.7,045.5,0.477,749.8,01.17,0.508
2015-04-08 03:10:00,1841E-3,5C000000,-0724,0837,12139,029.8,045.5,0.477,749.8,01.17,0.508
2015-04-08 03:11:00,1828E-3,5C000000,-0724,0836,12125,029.8,045.5,0.476,749.7,01.17,0.508
2015-04-08 03:12:00,1782E-3,5C000000,-0724,0836,12133,029.9,045.5,0.476,749.7,01.17,0.508
2015-04-08 03:13:00,1766E-3,5C000000,-0724,0836,12105,030.0,045.5,0.476,749.7,01.17,0.508
2015-04-08 03:14:00,1812E-3,5C000000,-0724,0836,12079,030.1,045.5,0.476,749.7,01.17,0.508
2015-04-08 03:15:00,1784E-3,5C000000,-0724,0836,12019,030.1,045.5,0.476,749.7,01.17,0.508
2015-04-08 03:16:00,1781E-3,5C000000,-0724,0836,12213,030.2,045.5,0.476,749.8,01.17,0.508
2015-04-08 03:17:00,2023E-3,5C000000,-0724,0836,12074,030.3,045.5,0.476,749.8,01.17,0.508
2015-04-08 03:18:00,1767E-3,5C000000,-0724,0836,12050,030.3,045.5,0.476,749.8,01.17,0.508
2015-04-08 03:19:00,1933E-3,5C000000,-0724,0837,12126,030.3,045.5,0.475,749.8,01.17,0.508
2015-04-08 03:20:00,1930E-3,5C000000,-0724,0836,12242,030.4,045.5,0.476,749.8,01.17,0.508
2015-04-08 03:21:00,1976E-3,5C000000,-0724,0836,12165,030.3,045.5,0.476,749.8,01.17,0.508
2015-04-08 03:22:00,1901E-3,5C000000,-0724,0836,12074,030.2,045.5,0.475,749.8,01.17,0.508
2015-04-08 03:23:00,1747E-3,5C000000,-0724,0836,12152,030.1,045.5,0.476,749.8,01.17,0.508
2015-04-08 03:24:00,1794E-3,5C000000,-0724,0836,12110,030.0,045.5,0.476,749.8,01.17,0.508
2015-04-08 03:25:00,1840E-3,5C000000,-0724,0836,12257,029.9,045.5,0.476,749.8,01.17,0.508
2015-04-08 03:26:00,1958E-3,5C000000,-0724,0835,12129,029.8,045.5,0.476,749.9,01.17,0.508
2015-04-08 03:27:00,1927E-3,5C000000,-0724,0836,12063,029.7,045.5,0.476,749.9,01.17,0.508
2015-04-08 03:28:00,1834E-3,5C000000,-0724,0836,11994,029.5,045.5,0.476,749.9,01.17,0.508
2015-04-08 03:29:00,1730E-3,5C000000,-0724,0837,12230,029.3,045.5,0.477,749.9,01.17,0.508
2015-04-08 03:30:00,1875E-3,5C000000,-0724,0836,12156,029.0,045.5,0.477,749.9,01.17,0.508
2015-04-08 03:31:00,1987E-3,5C000000,-0724,0835,12112,028.8,045.5,0.477,750.0,01.17,0.508
2015-04-08 03:32:00,1869E-3,5C000000,-0724,0835,12243,028.6,045.5,0.478,750.0,01.17,0.508
2015-04-08 03:33:00,1842E-3,5C000000,-0724,0834,12074,028.3,045.4,0.478,750.0,01.17,0.508
2015-04-08 03:34:00,1941E-3,5C000000,-0724,0836,12225,028.2,045.5,0.478,749.9,01.17,0.508
2015-04-08 03:35:00,1725E-3,5C000000,-0724,0835,12106,028.0,045.5,0.478,749.9,01.17,0.508
2015-04-08 03:36:00,1701E-3,5C000000,-0724,0836,12276,027.9,045.5,0.479,749.9,01.17,0.508
2015-04-08 03:37:00,1853E-3,5C000000,-0724,0835,12054,027.8,045.5,0.479,749.9,01.17,0.508
2015-04-08 03:38:00,1720E-3,5C000000,-0724,0835,12087,027.8,045.5,0.479,749.9,01.17,0.508
2015-04-08 03:39:00,1744E-3,5C000000,-0724,0835,12250,027.9,045.5,0.479,749.9,01.17,0.508
2015-04-08 03:40:00,1737E-3,5C000000,-0724,0836,12170,028.0,045.5,0.479,749.9,01.17,0.508
2015-04-08 03:41:00,1816E-3,5C000000,-0724,0835,12160,028.1,045.5,0.479,749.8,01.17,0.508
2015-04-08 03:42:00,1768E-3,5C000000,-0724,0835,12070,028.2,045.5,0.479,749.9,01.17,0.508
2015-04-08 03:43:00,1946E-3,5C000000,-0724,0836,12147,028.3,045.5,0.479,749.9,01.17,0.508
2015-04-08 03:44:00,1900E-3,5C000000,-0724,0835,12113,028.4,045.5,0.478,749.8,01.17,0.508
2015-04-08 03:45:00,1952E-3,5C000000,-0724,0835,12338,028.5,045.5,0.479,749.8,01.17,0.508
2015-04-08 03:46:00,1931E-3,5C000000,-0724,0835,12203,028.7,045.5,0.479,749.8,01.17,0.508
2015-04-08 03:47:00,1917E-3,5C000000,-0724,0836,12059,028.8,045.5,0.479,749.9,01.17,0.508
2015-04-08 03:48:00,1891E-3,5C000000,-0724,0835,12275,028.9,045.5,0.478,749.9,01.17,0.508
2015-04-08 03:49:00,1827E-3,5C000000,-0724,0835,12224,029.0,045.5,0.478,749.9,01.17,0.508
2015-04-08 03:50:00,1870E-3,5C000000,-0724,0835,12131,029.1,045.5,0.478,749.8,01.17,0.508
2015-04-08 03:51:00,1826E-3,5C000000,-0724,0835,12277,029.2,045.5,0.477,749.9,01.17,0.508
2015-04-08 03:52:00,1827E-3,5C000000,-0724,0837,12209,029.3,045.5,0.477,749.9,01.17,0.508
2015-04-08 03:53:00,1832E-3,5C000000,-0724,0835,12137,029.5,045.5,0.477,749.8,01.17,0.508
2015-04-08 03:54:00,1874E-3,5C000000,-0724,0836,12244,029.6,045.5,0.477,749.9,01.17,0.508
2015-04-08 03:55:00,1808E-3,5C000000,-0724,0835,12259,029.6,045.5,0.477,749.9,01.17,0.508
2015-04-08 03:56:00,1914E-3,5C000000,-0724,0837,12235,029.7,045.5,0.477,749.9,01.17,0.508
2015-04-08 03:57:00,1766E-3,5C000000,-0724,0836,11952,029.8,045.5,0.477,749.9,01.17,0.508
2015-04-08 03:58:00,1873E-3,5C000000,-0724,0835,12017,029.9,045.5,0.477,749.8,01.17,0.508
2015-04-08 03:59:00,1922E-3,5C000000,-0724,0835,12170,030.0,045.5,0.476,749.9,01.17,0.508
2015-04-08 04:00:00,1913E-3,5C000000,-0724,0836,12277,030.0,045.5,0.476,749.9,01.17,0.508
2015-04-08 04:01:00,1839E-3,5C000000,-0724,0835,12127,030.1,045.5,0.476,749.9,01.17,0.508
2015-04-08 04:02:00,1969E-3,5C000000,-0724,0836,12132,030.1,045.5,0.476,749.9,01.17,0.508
2015-04-08 04:03:00,1829E-3,5C000000,-0724,0836,12130,030.1,045.5,0.476,749.9,01.17,0.508
2015-04-08 04:04:00,1874E-3,5C000000,-0724,0836,12079,030.0,045.5,0.476,750.0,01.17,0.508
2015-04-08 04:05:00,1725E-3,5C000000,-0724,0836,12055,029.9,045.5,0.476,750.0,01.17,0.508
2015-04-08 04:06:00,1869E-3,5C000000,-0724,0835,12157,029.8,045.5,0.476,750.0,01.17,0.508
2015-04-08 04:07:00,1930E-3,5C000000,-0724,0836,12168,029.7,045.5,0.476,750.0,01.17,0.508
2015-04-08 04:08:00,1945E-3,5C000000,-0724,0835,12194,029.6,045.5,0.476,750.0,01.17,0.508
2015-04-08 04:09:00,1971E-3,5C000000,-0724,0835,12176,029.5,045.5,0.477,750.0,01.17,0.508
2015-04-08 04:10:00,2065E-3,5C000000,-0724,0835,12183,029.3,045.5,0.477,750.0,01.17,0.508
2015-04-08 04:11:00,2018E-3,5C000000,-0724,0835,12212,029.2,045.5,0.477,750.1,01.17,0.508
2015-04-08 04:12:00,2037E-3,5C000000,-0724,0835,11992,028.9,045.5,0.477,750.1,01.17,0.508
2015-04-08 04:13:00,1966E-3,5C000000,-0724,0834,12235,028.7,045.5,0.477,750.1,01.17,0.508
2015-04-08 04:14:00,1985E-3,5C000000,-0724,0836,12160,028.5,045.5,0.478,750.1,01.17,0.508
2015-04-08 04:15:00,2014E-3,5C000000,-0724,0835,12025,028.3,045.5,0.478,750.1,01.17,0.508
2015-04-08 04:16:00,1946E-3,5C000000,-0724,0836,12293,028.1,045.5,0.478,750.1,01.17,0.508
2015-04-08 04:17:00,2140E-3,5C000000,-0724,0835,12064,027.9,045.5,0.479,750.1,01.17,0.508
2015-04-08 04:18:00,2160E-3,5C000000,-0724,0834,12209,027.8,045.4,0.479,750.1,01.17,0.508
2015-04-08 04:19:00,2264E-3,5C000000,-0724,0834,12132,027.7,045.4,0.479,750.1,01.17,0.508
2015-04-08 04:20:00,2171E-3,5C000000,-0724,0833,12311,027.7,045.5,0.479,750.1,01.17,0.508